LW7DST Weather Reports


time (UTC)temp
F
wind
direction
speed
knots
gust
knots
rain 1hr
in
rain 24hr
in
rain mn
in
humidity
%
barometer
mb
20260506033604 67 78 0.9 5.2 0.00 0.00 0.00 91 1004.2
20260506032704 67 98 1.7 5.2 0.00 0.00 0.00 91 1004.4
20260506031804 67 81 2.6 4.3 0.00 0.00 0.00 91 1004.3
20260506031115 67 94 2.6 5.2 0.00 0.00 0.00 91 1004.1
20260506030005 67 96 2.6 6.1 0.00 0.00 0.00 91 1004.4
20260506025404 67 107 2.6 6.1 0.00 0.00 0.00 91 1004.6
20260506024504 67 104 1.7 5.2 0.00 0.00 0.00 91 1004.5
20260506023813 67 85 1.7 5.2 0.00 0.00 0.00 91 1004.7
20260506022703 67 62 1.7 6.1 0.00 0.00 0.00 91 1004.7
20260506021805 67 71 1.7 7.0 0.00 0.00 0.00 91 1004.8
20260506021115 67 95 1.7 5.2 0.00 0.00 0.00 91 1004.8
20260506020014 67 90 3.5 6.1 0.00 0.00 0.00 91 1004.8
20260506015404 67 98 3.5 4.3 0.00 0.00 0.00 91 1004.8
20260506014504 67 99 1.7 3.5 0.00 0.00 0.00 91 1004.9
20260506013604 67 99 1.7 3.5 0.00 0.00 0.00 91 1004.8
20260506012704 68 99 2.6 5.2 0.00 0.00 0.00 90 1004.6
20260506012015 68 78 3.5 4.3 0.00 0.00 0.00 90 1004.3
20260506011114 68 96 1.7 6.1 0.00 0.00 0.00 90 1004.5
20260506010004 68 130 3.5 7.0 0.00 0.00 0.00 90 1004.4
20260506005404 68 151 2.6 7.0 0.00 0.00 0.00 90 1004.2
20260506004505 68 111 2.6 7.0 0.00 0.00 0.00 90 1004.5
20260506003604 68 96 3.5 6.1 0.00 0.00 0.00 89 1004.5
20260506002915 68 91 3.5 5.2 0.00 0.00 0.00 89 1004.7
20260506002015 69 113 3.5 5.2 0.00 0.00 0.00 88 1004.7
20260506000905 69 94 1.7 7.8 0.00 0.00 0.00 87 1004.6
20260506000004 69 75 2.6 7.0 0.00 0.00 0.00 86 1004.6
20260505235405 69 83 3.5 8.7 0.00 0.00 0.00 86 1004.8
20260505234505 69 88 5.2 8.7 0.00 0.00 0.00 85 1004.8
20260505233604 69 99 1.7 6.1 0.00 0.00 0.00 85 1005.2
20260505232705 70 82 1.7 6.1 0.00 0.00 0.00 84 1005.0
20260505231804 70 76 1.7 5.2 0.00 0.00 0.00 84 1004.7
20260505230904 70 53 2.6 6.1 0.00 0.00 0.00 83 1004.7
20260505230004 70 91 3.5 7.0 0.00 0.00 0.00 83 1004.6
20260505225404 70 82 1.7 7.8 0.00 0.00 0.00 82 1004.4
20260505224505 70 100 1.7 7.0 0.00 0.00 0.00 82 1004.4
20260505223815 70 98 0.9 7.0 0.00 0.00 0.00 82 1004.3
20260505222705 71 99 1.7 5.2 0.00 0.00 0.00 82 1004.2
20260505221804 71 95 3.5 7.8 0.00 0.00 0.00 81 1004.1
20260505220904 71 81 1.7 4.3 0.00 0.00 0.00 81 1004.1
20260505220004 71 81 1.7 4.3 0.00 0.00 0.00 81 1004.2
20260505215404 71 82 1.7 4.3 0.00 0.00 0.00 81 1004.4
20260505214504 71 105 1.7 4.3 0.00 0.00 0.00 81 1004.1
20260505213604 72 93 1.7 4.3 0.00 0.00 0.00 79 1004.2
20260505212704 72 108 3.5 4.3 0.00 0.00 0.00 79 1004.0
20260505211804 72 109 3.5 4.3 0.00 0.00 0.00 79 1003.8
20260505210904 72 102 1.7 6.1 0.00 0.00 0.00 79 1003.7
20260505210004 72 92 0.9 4.3 0.00 0.00 0.00 78 1003.8
20260505205614 72 111 0.9 6.1 0.00 0.00 0.00 78 1003.6
20260505204504 72 110 1.7 6.1 0.00 0.00 0.00 78 1003.6
20260505203604 73 104 3.5 7.0 0.00 0.00 0.00 78 1003.8
20260505202704 73 116 4.3 7.0 0.00 0.00 0.00 77 1003.8
20260505201804 74 99 3.5 7.0 0.00 0.00 0.00 76 1003.6
20260505200905 74 109 3.5 7.8 0.00 0.00 0.00 76 1003.7
20260505200214 74 106 3.5 7.8 0.00 0.00 0.00 75 1003.6
20260505195404 75 106 3.5 7.0 0.00 0.00 0.00 75 1003.9
20260505194504 74 58 1.7 5.2 0.00 0.00 0.00 76 1003.9
20260505193604 74 59 1.7 5.2 0.00 0.00 0.00 76 1004.0
20260505192704 74 92 0.9 4.3 0.00 0.00 0.00 77 1003.8
20260505191804 74 105 2.6 7.0 0.00 0.00 0.00 76 1003.9
20260505190904 74 73 3.5 7.0 0.00 0.00 0.00 76 1003.9
20260505190213 74 88 1.7 7.0 0.00 0.00 0.00 76 1003.8
20260505185613 74 80 3.5 7.0 0.00 0.00 0.00 76 1003.7
20260505184714 74 90 3.5 6.1 0.00 0.00 0.00 76 1003.7
20260505183604 74 79 0.9 3.5 0.00 0.00 0.00 76 1004.1
20260505182704 74 75 0.9 6.1 0.00 0.00 0.00 76 1004.1
20260505182014 74 102 1.7 4.3 0.00 0.00 0.00 75 1004.2
20260505180904 74 45 0.9 2.6 0.00 0.00 0.00 76 1004.2
20260505180004 74 329 0.9 1.7 0.00 0.00 0.00 76 1004.4
20260505175404 74 358 0.0 2.6 0.00 0.00 0.00 76 1004.3
20260505174504 74 330 1.7 3.5 0.00 0.00 0.00 76 1004.5
20260505173604 74 338 0.0 2.6 0.00 0.00 0.00 77 1004.6
20260505172705 73 325 0.0 3.5 0.00 0.00 0.00 76 1004.8
20260505171804 74 312 0.9 3.5 0.00 0.00 0.00 76 1004.6
20260505170904 73 304 1.7 4.3 0.00 0.00 0.00 76 1004.5
20260505170215 74 347 2.6 4.3 0.00 0.00 0.00 76 1004.6
20260505165404 74 344 2.6 3.5 0.00 0.00 0.00 76 1004.5
20260505164504 73 322 2.6 5.2 0.00 0.00 0.00 78 1004.7
20260505163813 73 340 1.7 6.1 0.00 0.00 0.00 78 1004.8
20260505162704 73 345 3.5 7.0 0.00 0.00 0.00 78 1004.8
20260505161803 73 356 3.5 7.8 0.00 0.00 0.00 78 1004.8
20260505160904 72 9 3.5 11.3 0.00 0.00 0.00 79 1004.9
20260505160214 72 334 2.6 10.4 0.00 0.00 0.00 79 1005.0
20260505152704 72 357 6.1 10.4 0.00 0.00 0.00 76 1005.4
20260505151804 72 349 4.3 11.3 0.00 0.00 0.00 75 1005.3
20260505151115 72 332 5.2 7.0 0.00 0.00 0.00 75 1005.6
20260505140214 66 356 3.5 5.2 0.00 0.00 0.00 87 1005.9
20260505124504 63 360 0.9 1.7 0.00 0.00 0.00 86 1005.4
20260505123603 63 360 3.5 5.2 0.00 0.00 0.00 86 1005.4
20260505122915 63 357 3.5 6.1 0.00 0.00 0.00 86 1005.3
20260505122014 62 18 2.6 3.5 0.00 0.00 0.00 87 1005.3
20260505120904 62 13 2.6 4.3 0.00 0.00 0.00 87 1005.2
20260505120005 61 37 3.5 4.3 0.00 0.00 0.00 88 1005.2
20260505115614 61 29 3.5 4.3 0.00 0.00 0.00 88 1005.2
20260505114504 61 351 3.5 13.9 0.00 0.00 0.00 88 1004.8
20260505113605 60 360 4.3 5.2 0.00 0.00 0.00 87 1005.0
20260505112704 60 0 0.0 0.0 0.00 0.00 0.00 87 1004.5
20260505111803 60 0 0.0 0.0 0.00 0.00 0.00 87 1004.5
20260505110905 59 0 0.0 0.0 0.00 0.00 0.00 86 1004.2
20260505101804 59 0 0.0 0.0 0.00 0.00 0.00 87 1004.1
20260505100904 59 0 0.0 0.0 0.00 0.00 0.00 87 1003.9
20260505100004 58 349 0.0 1.7 0.00 0.00 0.00 87 1003.8
20260505095404 58 356 0.9 1.7 0.00 0.00 0.00 87 1003.7
20260505094504 58 360 0.9 2.6 0.00 0.00 0.00 87 1003.5
20260505093604 58 360 1.7 2.6 0.00 0.00 0.00 87 1003.4
20260505092704 58 180 0.0 1.7 0.00 0.00 0.00 87 1003.7
20260505091804 57 180 0.9 1.7 0.00 0.00 0.00 87 1003.7
20260505090904 57 0 0.0 0.0 0.00 0.00 0.00 88 1003.6
20260505090214 57 360 0.0 1.7 0.00 0.00 0.00 88 1003.8
20260505085404 57 0 0.0 0.0 0.00 0.00 0.00 88 1003.6
20260505084504 56 0 0.0 0.0 0.00 0.00 0.00 88 1003.5
20260505083604 56 0 0.0 0.0 0.00 0.00 0.00 87 1003.3
20260505082704 56 0 0.0 0.0 0.00 0.00 0.00 87 1003.5
20260505081804 56 0 0.0 0.0 0.00 0.00 0.00 87 1003.4
20260505080904 56 0 0.0 0.0 0.00 0.00 0.00 86 1003.5
20260505080004 56 0 0.0 0.0 0.00 0.00 0.00 85 1003.4
20260505075404 55 0 0.0 0.0 0.00 0.00 0.00 84 1003.3
20260505074504 55 0 0.0 0.0 0.00 0.00 0.00 84 1003.4
20260505073604 55 0 0.0 0.0 0.00 0.00 0.00 84 1003.3
20260505072704 55 0 0.0 0.0 0.00 0.00 0.00 84 1003.0
20260505071804 56 0 0.0 0.0 0.00 0.00 0.00 84 1003.0
20260505070904 56 0 0.0 0.0 0.00 0.00 0.00 84 1003.2
20260505070004 56 315 0.0 1.7 0.00 0.00 0.00 84 1002.9
20260505065404 56 326 0.0 1.7 0.00 0.00 0.00 83 1003.0
20260505064714 56 356 0.0 1.7 0.00 0.00 0.00 83 1003.0
20260505063604 56 334 0.9 1.7 0.00 0.00 0.00 83 1003.2
20260505062914 57 0 0.0 0.0 0.00 0.00 0.00 82 1003.1
20260505061804 57 0 0.0 0.0 0.00 0.00 0.00 82 1003.2
20260505060904 57 0 0.0 0.0 0.00 0.00 0.00 81 1003.3
20260505060005 57 0 0.0 0.0 0.00 0.00 0.00 80 1003.1
20260505055404 57 315 0.0 1.7 0.00 0.00 0.00 80 1003.4
20260505054714 58 318 0.9 1.7 0.00 0.00 0.00 80 1003.5
20260505053815 58 347 0.9 1.7 0.00 0.00 0.00 80 1003.5
20260505052704 58 323 0.9 1.7 0.00 0.00 0.00 80 1003.7
20260505051804 58 352 0.9 2.6 0.00 0.00 0.00 80 1003.6
20260505050904 58 360 1.7 2.6 0.00 0.00 0.00 80 1003.6
20260505040904 58 360 1.7 2.6 0.00 0.00 0.00 83 1003.4
20260505040005 58 0 0.0 0.0 0.00 0.00 0.00 83 1003.5
20260505035404 57 0 0.0 0.0 0.00 0.00 0.00 83 1003.6
20260505034504 57 0 0.0 0.0 0.00 0.00 0.00 81 1003.5